{"data":{"norad_id":47742,"intl_designator":"2021-017W","name":"STARLINK-2156","alt_names":[],"object_type":"PAYLOAD","status":"ACTIVE","operator":null,"country":"US","launch_date":"2021-03-04","launch_site_code":"AFETR","launch_vehicle":null,"mission":null,"orbit_class":"UNKNOWN","rcs_meters":null,"size_class":null,"mass_kg":null,"dimensions":null,"purposes":["comms"],"wikipedia_slug":null,"has_3d_model":false,"image_url":null,"decayed_at":null,"tle_current":{"epoch":"2026-09-19T21:40:56.579232Z","epoch_age_seconds":77715,"freshness":"FRESH","line1":"1 47742U 21017W   26262.90343263  .00005762  00000+0  19739-3 0  9994","line2":"2 47742  53.1609  10.3283 0001702  69.5797 290.5387 15.31685197307796","mean_motion":15.31685197,"eccentricity":0.0001702,"inclination_deg":53.1609,"raan_deg":10.3283,"arg_perigee_deg":69.5797,"mean_anomaly_deg":290.5387,"bstar":0.00019739,"rev_number":30779,"period_min":94.014096553288,"perigee_km":469.61843617869,"apogee_km":471.94980892881,"semimajor_km":6848.9211225537,"source":"CELESTRAK","updated_at":"2026-09-20T09:00:38.601196Z"}}}